Location: The Jewett Observatory
(46.7288°N, 117.1525°W)
Time: 22:26:59
(UTC-07:00)

Meteor 1-28 Rocket - Visible Passes

Search period start: 29 July 2016 00:00
Search period end: 08 August 2016 00:00
Orbit: 507 x 527 km, 97.2° (Epoch: 29 July)

Date Brightness Start Highest point End Pass type
(mag) Time Alt. Az. Time Alt. Az. Time Alt. Az.
30 Jul 6.9 21:05:48 10° NW 21:07:21 12° WNW 21:08:53 10° W visible
05 Aug 7.3 21:14:15 10° NW 21:14:35 10° WNW 21:14:56 10° WNW visible
06 Aug 6.7 20:58:17 10° NNW 21:00:18 14° WNW 21:02:20 10° W visible
07 Aug 6.5 20:43:14 10° NNW 20:45:59 19° WNW 20:48:45 10° WSW visible
